User: anonymous   Login
Location: Caltech
(34.1382°N, 118.1253°W)
Time: 19:17:04
(UTC-07:00)
Language:

SEDSat Delta rocket - Orbit

View from above orbital plane
View from above orbital plane
View from above satellite
View from above satellite

Ground track
Ground track

The orbit data is extracted from the following two-line orbital elements,

1 25510U 98061C   15213.84971803  .00000740  00000-0  12053-3 0  9994
2 25510 031.4338 109.7820 0329827 125.3512 303.1634 14.36696906878669
Epoch (UTC): 01 August 2015 20:23:35
Eccentricity: 0.0329827
inclination: 31.4338°
perigee height: 533 km
apogee height: 1005 km
right ascension of ascending node: 109.7820°
argument of perigee: 125.3512°
revolutions per day: 14.36696906
mean anomaly at epoch: 303.1634°
orbit number at epoch: 87866

The dashed part of the orbit path shows where the satellite is in the earth's shadow,  

DLR